This is the latest recevied weather packets stored in our database for station/object KC4MCQ-10. If no packets are shown the sender has not sent any weather packets the latest 10 day(s).
| Time | Temp. | Humidity | Pressure | Rain* | Wind** | Luminosity | Snow |
|---|---|---|---|---|---|---|---|
| 1787582109 | 30° C | 82% | 1017.2 hPa | 0 mm | 0.89 m/s, 284° | - | - |
| 1787581506 | 29.44° C | 82% | 1017.3 hPa | 0 mm | 0.45 m/s, 312° | - | - |
| 1787580900 | 29.44° C | 82% | 1017.3 hPa | 0 mm | 0.89 m/s, 283° | - | - |
| 1787580299 | 28.89° C | 83% | 1017.2 hPa | 0 mm | 0.45 m/s, 268° | - | - |
| 1787579698 | 28.89° C | 83% | 1017.3 hPa | 0 mm | 0.89 m/s, 281° | - | - |
| 1787579092 | 28.33° C | 83% | 1017.3 hPa | 0 mm | 1.34 m/s, 259° | - | - |
| 1787578488 | 27.78° C | 83% | 1017.2 hPa | 0 mm | 0.45 m/s, 240° | - | - |
| 1787577887 | 27.78° C | 84% | 1017.3 hPa | 0 mm | 1.34 m/s, 285° | - | - |
| 1787577282 | 27.22° C | 84% | 1017.3 hPa | 0 mm | 0.89 m/s, 284° | - | - |
| 1787576679 | 26.67° C | 84% | 1017.5 hPa | 0 mm | 1.34 m/s, 234° | - | - |
| 1787576075 | 26.11° C | 85% | 1017.6 hPa | 0 mm | 1.34 m/s, 273° | - | - |
| 1787575462 | 25.56° C | 86% | 1017.4 hPa | 0 mm | 0.89 m/s, 267° | - | - |
| 1787574861 | 25° C | 87% | 1017.4 hPa | 0 mm | 0.45 m/s, 267° | - | - |
| 1787574254 | 25° C | 87% | 1017.4 hPa | 0 mm | 0.89 m/s, 288° | - | - |
| 1787573654 | 25° C | 88% | 1017.2 hPa | 0 mm | 0.89 m/s, 229° | - | - |
| 1787573054 | 24.44° C | 89% | 1017.1 hPa | 0 mm | 0.89 m/s, 217° | - | - |
| 1787572425 | 24.44° C | 89% | 1017.1 hPa | 0 mm | 0.45 m/s, 267° | - | - |
| 1787571805 | 24.44° C | 89% | 1017 hPa | 0 mm | 1.34 m/s, 275° | - | - |
| 1787571204 | 23.89° C | 89% | 1016.9 hPa | 0 mm | 0.89 m/s, 281° | - | - |
| 1787570601 | 23.89° C | 89% | 1016.7 hPa | 0 mm | 0.45 m/s, 271° | - | - |
| 1787569995 | 23.89° C | 89% | 1016.6 hPa | 0 mm | 0.89 m/s, 192° | - | - |
| 1787569394 | 23.33° C | 89% | 1016.7 hPa | 0 mm | 0 m/s | - | - |
| 1787568792 | 23.33° C | 89% | 1016.6 hPa | 0 mm | 0 m/s | - | - |
| 1787566986 | 23.33° C | 89% | 1016.3 hPa | 0 mm | 0.45 m/s, 215° | - | - |
| 1787566386 | 23.33° C | 89% | 1016.2 hPa | 0 mm | 0.45 m/s, 217° | - | - |
* Rain latest 24 hours (hover to see other rain measurements)
** Current wind speed in m/s (hover to see current wind gust speed)